sat.trackr.live / text

‹ back to catalog

STARLINK-5315

NORAD 55309 · 2023-010AS

PAYLOAD ACTIVE UNKNOWN

§ Identity

Operator
Country
US
Launch date
2023-01-19
Launch site
AFWTR
Launch vehicle
Mass (kg)
RCS (m²)

Purposes: comms

External: N2YO · Heavens-Above · Gunter

§ Orbital elements

Epoch: 2026-09-20T22:00:03.000096Z

Period
95.69 min
Inclination
70.0004°
Eccentricity
0.0005561
Mean motion
15.04820143 rev/d
Perigee alt
548.2 km
Apogee alt
555.9 km
Semi-major
6,930.2 km
B*
3.5848e-3
RAAN
232.0241°
Arg perigee
274.0124°
Mean anomaly
327.1652°
Rev number
576

§ Raw data

STARLINK-53151 55309U 23010AS  26263.91670139  .00051009  00000+0  35848-2 0  99972 55309  70.0004 232.0241 0005561 274.0124 327.1652 15.04820143  5768

JSON: /api/v1/satellites/55309 · /tle

For live sub-satellite position, see the globe view (requires WebGL).

§ Visibility from observer

Set your observer location to see the next 7 days of passes ≥ 10°. The values pass through the URL so the page stays shareable.

No JS? Fill the form by hand. The geolocation button needs JavaScript.